Location: Caltech
(34.1382°N, 118.1253°W)
Time: 02:19:01
(UTC-07:00)

UOSAT-12 - Visible Passes

Search period start: 24 October 2017 00:00
Search period end: 03 November 2017 00:00
Orbit: 596 x 657 km, 64.6° (Epoch: 23 October)

Date Brightness Start Highest point End Pass type
(mag) Time Alt. Az. Time Alt. Az. Time Alt. Az.
24 Oct 7.1 05:37:01 13° SSW 05:41:06 86° ESE 05:45:44 10° NNE visible
25 Oct 9.6 04:20:45 17° ESE 04:21:13 18° ESE 04:24:14 10° ENE visible
25 Oct 7.6 05:58:09 19° WSW 06:00:56 40° NW 06:05:18 10° NNE visible
26 Oct 8.4 04:41:30 38° E 04:41:30 38° E 04:45:04 10° NE visible
26 Oct 8.6 06:18:53 14° W 06:20:59 19° NW 06:24:18 10° N visible
27 Oct 8.0 05:01:55 42° NNE 05:01:55 42° NNE 05:05:03 10° NNE visible
28 Oct 8.6 05:22:07 25° NNW 05:22:07 25° NNW 05:24:30 10° N visible
29 Oct 9.2 05:42:07 14° NNW 05:42:07 14° NNW 05:43:20 10° N visible
